Zurück zum Katalog

DELTA 1 DEB

AktivLEO
NORAD 10262·DEBRIS·🇺🇸 United States

Gestartet Jul 14, 1977 von Cape Canaveral Space Force Station

Loading…

Nächste Überflüge (nächste 24 Stunden)

TLE

AktuellSource: Space-Track

Epoche: Sep 14, 2026, 00:46 UTC

1 10262U 77065CP  26257.03244404  .00000932  00000-0  17402-3 0  9990
2 10262  29.0566 172.3964 0632429 170.3937 190.9378 13.77097835418515

Verfolge DELTA 1 DEB in Echtzeit mit AllMySat

Download on the App Store